THOR ABLESTAR DEB, 648

Orbit data source: Space-Track

THOR ABLESTAR DEB, 648 is space debris in LEO originally from a launch on Thu, 29 Jun 1961 UTC launched from the Air Force Eastern Test Range (AFETR). Debris objects in space refer to the collection of defunct objects orbiting the Earth. Examples of debris include non-operational satellites, rocket bodies, and fragments generated from explosions, collisions, or faulty payload assembly.

Loading next visibility...
Identifier
648, 1961-015GZ
Orbit
LEO
Country
Flag of USUS
Related business
Manufacturer
Unknown
Mission
Spacecraft
Bus & Motor
Unknown
Mass
Unknown
Launch date (UTC)
1961-06-29 (64 years ago)
Launch vehicle
Unknown
Launch site
Air Force Eastern Test Range (AFETR)
Object type
Payload
Rocket body
Debris
Shape & HBR
Unknown shape, 0.1 m
Radar Cross Section
Small (<0.1 m²)

Expand to show TLE details & history
Last TLE update: 1 day ago

TLE from 1 day ago
0 THOR ABLESTAR DEB
1 00648U 61015GZ  25315.13161015  .00000678  00000-0  89488-3 0  9996
2 00648  65.8731 195.0844 0201131 328.3111 186.7146 13.59377657169336
Epoch: 2025-11-11T03:09Z
TLE epoch observation values (Epoch: 2025-11-11T03:09:31.116Z)
Latitude
22.93188°
Longitude
-93.68492°
Altitude
1,188 km
Speed
7.189 km/s
True Right ascension
00h 16m 52s
True Declination
22° 48' 57"
Sunlit
Object was in full shadow at epoch
Visualization orbit readout
Latitude
Unknown
Longitude
Unknown
Altitude
Unknown
Speed
Unknown
Apparent Right ascension
Unknown
Apparent Declination
Unknown
Sunlit
N/A
Visualization observer readout
Local Sidereal Time
00:44:01
Azimuth
Unknown
Elevation
Unknown
Doppler factor
Unknown
Orbital elements
Apogee altitude
1,185.608 km
Perigee altitude
887.347 km
Semi-major axis
7,414.615 km
Eccentricity
0.02011
Inclination
65.8731°
RAAN
195.0844°
Arg. of periapsis
328.3111°
True anomaly
186.45169°
Mean anomaly
186.7146°
Eccentric anomaly
186.5825°
Mean motion
3.39946 °/min
Orbital period
105.9 mins
BSTAR
0.00089488
Loading maneuver chart data...
Computing Atmospheric mass density...

Documentation

Showing up to 5 results
|